Precipitable_Water
0.36 0.33 0.33 0.45 0.71 0.80 0.93 1.00 1.00 1.17 1.41 1.32 1.31 1.17 1.25 1.44 1.38 1.24 1.06 1.05 1.21 1.10 1.15 1.36 1.30 1.40 1.41 1.37 1.36 1.52 1.50 1.54 1.56 1.58 1.55 1.60 1.54 1.66 1.71 1.73 1.72 1.73 1.64 1.77
0.27 0.24 0.32 0.50 0.81 0.97 0.95 0.96 0.98 1.12 1.16 1.17 1.24 1.24 1.30 1.43 1.40 1.41 1.37 1.24 1.26 1.10 1.09 1.27 1.30 1.40 1.40 1.32 1.36 1.61 1.53 1.55 1.63 1.67 1.66 1.66 1.62 1.62 1.68 1.70 1.68 1.69 1.62 1.70
0.22 0.24 0.34 0.45 0.73 0.80 0.89 0.92 0.94 0.96 1.15 1.16 1.15 1.20 1.21 1.33 1.48 1.45 1.45 1.40 1.29 1.11 1.14 1.23 1.24 1.40 1.42 1.31 1.26 1.40 1.55 1.63 1.73 1.73 1.79 1.68 1.76 1.64 1.70 1.70 1.66 1.65 1.66 1.58
0.22 0.28 0.32 0.36 0.54 0.71 0.73 1.05 1.05 1.00 0.91 0.81 1.20 0.86 1.12 1.25 1.29 1.38 1.42 1.42 1.35 1.28 1.21 1.18 1.19 1.28 1.34 1.28 1.25 1.37 1.55 1.65 1.67 1.78 1.82 1.75 1.76 1.63 1.86 1.72 1.75 1.69 1.71 1.59
0.20 0.23 0.27 0.32 0.39 0.76 0.88 1.03 1.06 0.96 0.87 0.89 0.97 0.93 1.07 1.22 1.12 1.22 1.34 1.40 1.43 1.32 1.25 1.23 1.24 1.29 1.32 1.33 1.27 1.20 1.49 1.69 1.61 1.81 1.94 1.89 1.74 1.86 1.90 1.87 1.89 1.72 1.71 1.71
0.27 0.27 0.29 0.35 0.45 0.71 1.01 1.04 1.03 0.99 0.92 0.71 0.89 0.90 0.92 1.01 1.01 1.11 1.28 1.44 1.48 1.39 1.44 1.37 1.37 1.37 1.39 1.42 1.41 1.30 1.20 1.40 1.68 1.69 1.88 1.83 1.80 1.91 1.91 1.84 2.01 1.80 1.80 1.64
0.30 0.24 0.28 0.35 0.49 0.79 0.74 0.75 0.67 0.66 0.65 0.63 0.89 0.88 0.95 1.11 1.14 1.11 1.20 1.38 1.45 1.48 1.49 1.42 1.39 1.40 1.43 1.43 1.43 1.42 1.24 1.17 1.39 1.48 1.55 1.93 1.92 1.96 1.99 1.83 1.81 1.90 1.75 1.71
0.32 0.21 0.26 0.37 0.35 0.60 0.66 0.66 0.57 0.51 0.57 0.67 0.95 0.80 0.92 1.19 1.20 1.29 1.37 1.39 1.54 1.42 1.47 1.49 1.49 1.45 1.61 1.46 1.53 1.41 1.38 1.13 1.22 1.39 1.32 1.45 1.72 1.84 1.89 1.99 2.09 2.02 1.85 1.93
0.35 0.32 0.39 0.32 0.36 0.37 0.47 0.53 0.67 0.64 0.71 0.67 0.84 0.95 1.12 1.12 1.11 1.21 1.33 1.37 1.42 1.56 1.58 1.56 1.57 1.66 1.61 1.69 1.66 1.55 1.51 1.48 1.27 1.25 1.26 1.25 1.36 1.51 1.76 1.92 2.04 2.15 2.06 1.86
0.41 0.35 0.45 0.45 0.38 0.41 0.43 0.53 0.45 0.57 0.47 0.51 0.73 0.82 0.84 0.93 0.97 1.11 1.19 1.29 1.38 1.44 1.49 1.53 1.66 1.71 1.73 2.23 1.94 1.94 1.86 1.65 1.47 1.53 1.49 1.40 1.36 1.43 1.56 1.69 1.75 1.90 1.97 2.04
0.47 0.42 0.42 0.47 0.39 0.34 0.39 0.38 0.50 0.51 0.50 0.50 0.55 0.68 0.89 0.98 1.04 1.09 1.11 1.22 1.27 1.40 1.46 1.58 1.68 1.75 1.88 2.10 2.05 1.78 1.82 1.87 1.72 1.88 1.98 2.04 1.70 1.42 1.52 1.53 1.56 1.55 1.82 1.94
0.53 0.46 0.40 0.43 0.44 0.44 0.38 0.36 0.39 0.34 0.37 0.51 0.55 0.67 1.08 1.02 1.09 1.09 1.21 1.31 1.30 1.34 1.43 1.57 1.74 1.80 1.82 1.83 1.82 1.72 1.73 1.98 2.08 2.12 2.23 2.17 1.98 2.02 1.87 1.72 1.68 1.72 1.57 1.59
0.53 0.45 0.40 0.40 0.44 0.47 0.38 0.35 0.33 0.33 0.32 0.31 0.41 0.60 1.04 0.98 1.03 1.04 1.10 1.33 1.34 1.41 1.59 1.60 1.68 1.69 1.70 1.76 1.79 1.87 1.86 2.04 2.13 2.11 2.11 2.12 2.05 2.02 2.04 2.02 1.93 1.90 1.82 1.84
0.56 0.47 0.45 0.41 0.47 0.53 0.45 0.38 0.35 0.30 0.23 0.25 0.33 0.52 0.76 0.83 0.82 1.13 1.38 1.51 1.57 1.47 1.53 1.66 1.70 1.62 1.59 1.78 1.90 1.90 2.02 2.04 2.04 1.96 1.93 1.93 1.98 2.01 2.06 2.16 2.14 2.04 1.98 2.03
0.50 0.41 0.45 0.52 0.56 0.56 0.50 0.46 0.38 0.31 0.28 0.26 0.47 0.57 0.70 0.82 0.95 1.21 1.42 1.51 1.55 1.55 1.58 1.56 1.64 1.73 1.74 2.02 2.07 2.07 2.02 1.97 1.92 1.86 1.80 1.83 1.93 2.00 2.05 2.08 2.03 1.96 1.97 2.01
0.50 0.42 0.50 0.45 0.57 0.61 0.52 0.53 0.52 0.41 0.30 0.53 0.61 0.68 1.06 1.08 1.12 1.19 1.26 1.29 1.30 1.53 1.59 1.65 1.77 1.95 2.18 1.97 2.01 2.00 1.97 1.92 1.88 1.80 1.76 1.87 1.90 1.93 1.92 1.94 1.95 1.93 1.92 2.01
0.50 0.50 0.49 0.41 0.53 0.54 0.53 0.59 0.61 0.59 0.54 0.50 0.57 0.75 0.97 0.94 0.92 0.91 0.95 1.13 1.21 1.30 1.41 1.53 1.59 1.68 1.81 1.90 2.00 1.99 2.00 1.92 1.78 1.76 1.80 1.82 1.88 1.90 1.99 1.99 1.98 1.93 1.83 1.81
0.53 0.51 0.48 0.41 0.49 0.39 0.64 0.78 0.77 0.71 0.70 0.73 0.73 0.71 0.68 0.73 0.80 0.79 1.11 1.18 1.26 1.33 1.37 1.42 1.49 1.61 1.69 1.83 1.92 1.99 1.96 1.87 1.84 1.86 1.89 1.93 1.88 1.85 1.83 1.84 1.82 1.81 1.81 1.74
0.55 0.56 0.45 0.35 0.39 0.52 0.65 0.72 0.66 0.63 0.66 0.79 0.85 0.96 0.95 0.89 0.96 0.97 1.19 1.20 1.18 1.19 1.30 1.37 1.45 1.48 1.57 1.64 1.73 1.83 1.89 1.90 1.87 1.84 1.88 1.91 1.90 1.81 1.77 1.72 1.74 1.76 1.74 1.77
0.62 0.68 0.51 0.44 0.40 0.38 0.68 0.75 0.81 0.74 0.59 0.88 0.94 1.15 1.11 1.17 0.72 0.96 1.25 1.27 1.17 1.18 1.22 1.19 1.29 1.38 1.44 1.52 1.61 1.63 1.68 1.72 1.64 1.66 1.73 1.78 1.81 1.76 1.72 1.71 1.69 1.74 1.74 1.75
0.52 0.52 0.46 0.44 0.42 0.48 0.68 0.72 0.82 0.56 0.64 0.89 1.03 1.04 1.11 1.11 1.27 1.31 1.28 1.24 1.24 1.17 1.12 1.17 1.20 1.21 1.29 1.40 1.46 1.41 1.45 1.43 1.49 1.55 1.61 1.60 1.64 1.65 1.67 1.65 1.66 1.68 1.70 1.69
0.56 0.54 0.54 0.48 0.46 0.39 0.72 0.67 0.57 0.73 0.86 0.96 1.07 1.00 1.07 1.10 1.20 1.23 1.27 1.27 1.21 1.13 1.09 1.14 1.13 1.13 1.21 1.28 1.31 1.28 1.29 1.36 1.37 1.35 1.39 1.45 1.51 1.56 1.56 1.55 1.57 1.56 1.59 1.59
0.43 0.61 0.58 0.57 0.60 0.70 0.80 0.80 0.82 0.83 0.81 0.84 0.91 1.05 1.31 1.12 1.17 1.18 1.11 1.04 1.05 1.06 1.04 1.12 1.10 1.10 1.13 1.16 1.18 1.15 1.17 1.21 1.20 1.18 1.19 1.25 1.29 1.31 1.34 1.31 1.34 1.32 1.45 1.43
0.54 0.54 0.54 0.57 0.65 0.67 0.72 0.76 0.75 0.76 0.68 0.72 0.80 0.88 0.96 1.04 1.13 1.05 1.05 1.00 1.02 1.04 1.02 1.06 1.05 1.02 1.02 1.06 1.06 1.07 1.08 1.08 1.02 0.96 0.93 0.98 0.98 1.01 1.06 1.03 1.03 1.03 1.02 1.04
0.45 0.49 0.41 0.54 0.60 0.59 0.59 0.58 0.60 0.62 0.60 0.56 0.65 0.79 0.90 0.93 1.01 1.01 0.94 0.94 0.97 0.97 0.99 1.03 1.02 1.00 1.00 1.03 0.95 0.87 0.86 0.87 0.85 0.83 0.81 0.82 0.81 0.81 0.80 0.84 0.87 0.89 0.91 0.94
0.47 0.40 0.32 0.37 0.55 0.53 0.52 0.56 0.57 0.50 0.44 0.46 0.47 0.57 0.74 0.82 0.86 0.90 0.91 0.88 0.85 0.90 0.97 0.95 0.97 0.97 0.91 0.86 0.84 0.90 0.93 0.93 0.89 0.81 0.79 0.78 0.78 0.75 0.73 0.66 0.66 0.70 0.72 0.73
Wind_Speed
19 18 20 21 20 19 13 12 9 8 2 9 10 16 15 13 14 12 18 16 18 17 17 16 15 16 13 11 13 13 13 12 11 11 9 9 9 9 7 8 8 8 8 9
19 21 21 21 16 12 11 12 10 7 10 10 10 19 17 18 13 16 14 15 17 18 18 18 17 16 14 12 13 14 13 12 12 10 9 8 9 8 8 8 7 7 7 7
20 19 19 21 18 14 12 10 13 10 11 10 15 18 19 19 18 19 19 17 16 17 20 20 18 17 15 13 14 14 13 12 12 11 9 9 8 8 8 7 6 6 6 6
18 20 20 20 18 15 11 9 11 13 12 10 10 14 19 21 20 20 23 22 19 19 22 21 20 19 17 15 14 15 14 12 12 12 10 9 8 7 6 6 6 6 5 5
17 18 18 17 19 15 13 9 8 8 4 6 10 11 19 19 21 26 26 27 25 20 21 23 21 19 20 17 15 14 14 13 12 12 10 9 8 6 6 6 6 7 6 6
18 17 16 15 11 17 18 9 2 5 7 4 7 9 12 18 22 28 26 28 28 24 23 21 21 21 21 19 17 15 15 14 13 12 11 10 9 8 6 6 5 6 6 7
14 17 16 16 12 18 15 11 5 4 5 10 6 8 12 18 19 21 23 27 30 26 24 24 24 19 23 21 19 16 15 15 14 13 12 11 10 8 6 6 7 6 6 6
12 14 17 16 18 18 20 15 9 6 5 4 5 7 9 10 17 19 22 30 30 28 25 24 27 21 23 21 21 18 16 14 15 13 13 12 10 8 8 7 6 6 7 5
8 12 11 17 19 20 18 17 15 7 5 4 4 5 5 5 7 13 18 27 32 29 25 24 24 23 23 19 21 19 17 15 14 14 13 12 11 10 9 8 7 6 5 5
15 12 13 11 17 19 17 14 14 13 10 7 2 1 5 5 7 11 16 22 29 31 28 25 22 24 25 27 19 18 18 16 15 14 12 11 11 11 10 9 9 7 6 6
11 12 14 12 18 16 17 14 14 12 14 11 6 7 6 9 8 11 15 19 18 27 30 26 24 22 23 27 21 19 17 17 17 14 14 11 12 12 12 11 10 9 8 6
9 12 11 11 12 16 16 19 16 11 11 15 11 8 9 8 14 14 16 19 21 21 25 24 26 24 23 23 23 20 18 18 18 16 15 13 12 12 12 12 11 10 10 9
11 11 9 8 8 9 13 18 18 16 13 14 12 12 13 13 12 14 15 20 21 21 21 24 20 23 24 26 24 20 23 19 18 16 13 13 14 14 13 14 13 12 10 11
12 15 14 10 11 13 11 14 17 15 15 14 14 13 16 14 9 8 9 11 12 23 23 23 22 19 23 25 27 20 20 18 17 14 13 13 15 16 16 17 15 14 13 13
14 15 17 12 9 9 11 11 13 17 16 12 10 13 14 14 11 11 11 10 9 13 17 19 21 20 19 23 18 19 17 18 17 16 14 13 13 13 15 17 19 17 17 18
12 14 14 15 11 7 11 8 8 13 17 9 13 11 14 14 13 13 13 14 14 14 13 14 16 16 17 14 15 16 16 16 16 15 14 13 12 12 12 13 14 15 15 17
10 11 12 15 14 11 9 7 6 5 2 10 13 15 18 16 17 17 17 15 16 17 18 17 17 17 16 15 14 16 17 17 15 14 13 12 12 11 10 11 11 12 12 12
9 10 11 13 12 14 13 5 1 6 6 4 8 17 19 18 17 14 15 14 13 13 14 16 17 18 19 17 16 16 17 17 16 15 14 13 13 11 10 10 10 10 10 10
10 9 10 10 14 15 12 9 7 8 7 3 7 11 15 18 16 14 20 16 13 11 11 11 14 14 15 16 17 16 15 16 16 15 14 14 14 13 13 11 11 10 10 10
3 6 10 10 11 14 16 13 9 9 9 4 6 5 5 16 18 19 18 17 12 11 11 11 12 13 13 14 15 16 16 16 16 15 15 16 16 16 15 14 14 14 13 12
5 4 8 10 11 14 16 14 13 10 13 10 10 10 7 6 13 20 18 14 11 11 11 12 13 14 15 15 16 16 17 17 18 18 18 18 18 18 18 17 17 16 15 15
4 2 6 8 9 9 11 12 15 15 11 12 12 14 12 16 10 6 9 12 12 11 13 12 13 14 16 17 17 17 18 18 18 18 18 19 19 19 20 20 19 19 18 17
3 3 2 4 8 8 6 5 8 11 12 11 10 16 7 12 9 8 9 9 12 13 13 14 15 15 15 16 17 18 19 19 19 19 18 19 20 20 21 21 21 21 21 22
2 2 6 4 7 7 7 5 3 4 6 8 10 11 13 13 14 12 11 11 12 12 13 14 15 16 17 17 17 18 18 19 19 19 19 20 20 20 20 21 22 22 22 22
1 1 2 4 8 6 6 7 7 7 8 8 9 9 9 11 11 11 10 10 11 12 14 15 17 18 18 18 19 20 20 20 20 21 21 21 22 21 21 21 21 21 21 22
2 3 2 4 7 5 7 6 6 6 8 8 9 10 11 11 12 13 13 13 13 13 15 16 16 17 19 20 21 21 22 22 22 22 22 22 23 23 23 22 22 23 24 24
Wind_Direction
213 215 218 218 225 231 215 206 206 220 217 166 218 193 198 199 183 194 186 181 183 182 183 180 172 169 168 163 160 159 156 153 154 151 145 145 151 145 140 137 132 126 131 126
216 216 221 222 226 197 202 221 229 238 257 237 238 211 206 193 204 192 189 187 192 188 184 180 176 177 176 171 169 168 165 162 159 154 153 147 152 151 149 143 142 141 138 137
214 218 215 223 208 209 216 233 223 233 238 245 219 213 210 214 205 207 204 200 201 191 187 183 183 185 181 177 174 174 173 173 173 168 161 156 153 153 157 156 155 151 154 156
221 222 224 223 216 221 228 226 213 222 244 232 228 219 215 216 216 213 212 208 202 198 199 193 189 188 188 185 181 183 180 181 181 180 177 177 179 162 175 184 179 173 167 169
222 220 223 228 228 197 207 186 216 222 251 217 221 222 210 204 224 217 213 210 202 206 197 196 195 194 190 187 186 184 187 184 185 186 188 181 177 184 183 187 198 200 190 185
226 223 225 220 219 189 178 162 178 244 235 211 197 213 201 197 206 208 216 206 206 203 201 201 199 193 192 189 189 188 189 193 193 192 191 193 195 186 184 188 190 184 196 196
230 223 220 223 188 185 187 193 217 263 240 231 240 226 232 217 220 218 213 209 203 205 205 205 202 197 194 195 192 191 191 194 196 197 195 194 194 199 202 196 192 194 195 203
224 226 218 220 215 198 198 203 213 232 219 252 245 246 234 247 219 219 217 207 202 200 205 205 203 200 198 201 195 194 195 195 198 201 202 203 204 208 206 201 197 210 213 223
224 225 239 222 222 221 227 226 225 230 249 223 252 235 277 175 180 196 198 196 199 200 201 201 205 202 198 197 195 197 201 199 200 203 204 206 208 209 210 207 211 212 220 226
230 248 229 238 224 222 216 226 235 229 218 223 214 115 235 208 179 178 185 190 198 200 203 201 205 205 203 190 201 198 199 202 200 201 203 206 210 214 217 218 219 223 223 229
227 223 237 243 213 212 223 223 224 225 220 223 216 259 213 213 198 195 191 189 193 199 198 204 208 207 206 200 206 200 203 207 206 208 209 220 222 219 220 223 227 229 229 235
219 217 226 234 220 215 218 223 224 220 230 229 235 250 221 193 202 198 203 200 200 198 200 202 204 208 209 210 208 207 207 213 211 218 218 226 232 218 221 224 225 230 234 235
233 220 220 230 218 218 221 229 232 234 240 241 227 237 223 214 214 212 210 208 208 206 199 198 197 208 209 211 213 218 215 216 214 218 226 233 231 235 239 232 231 230 240 238
227 219 213 214 229 243 245 229 232 231 235 239 239 225 217 221 213 221 192 194 204 209 207 204 205 209 212 216 208 208 206 212 215 223 232 239 243 244 243 236 234 240 250 248
225 227 228 238 251 245 247 255 233 239 236 226 219 207 207 221 215 201 205 202 190 189 197 205 211 212 216 211 194 200 208 216 221 228 239 244 250 245 238 238 241 248 256 251
235 233 225 227 244 263 233 250 274 249 231 197 184 206 208 203 204 218 228 228 221 211 202 200 200 201 205 193 211 212 213 216 224 232 236 241 240 238 244 243 244 254 258 253
236 226 226 223 242 249 201 256 291 232 180 218 206 204 204 215 218 227 225 221 218 212 213 214 217 216 217 220 220 222 225 224 223 225 230 235 238 244 244 239 248 258 260 261
229 223 227 228 231 212 217 227 216 155 137 185 195 207 216 214 217 214 209 193 195 201 210 216 221 225 228 226 225 224 221 221 223 232 236 237 232 232 238 243 250 262 258 261
225 218 223 219 213 226 219 226 237 232 212 200 213 228 211 208 212 223 205 197 194 200 203 212 215 218 222 224 223 220 219 222 225 230 234 235 233 238 243 249 252 261 262 259
164 193 214 215 204 209 222 233 239 229 207 215 204 193 207 211 207 203 187 189 201 207 215 215 218 216 219 222 223 224 226 226 230 235 235 240 241 242 247 251 255 262 259 253
207 239 209 201 209 222 228 234 240 210 218 227 207 206 187 231 210 193 192 192 197 211 221 223 222 224 225 228 227 230 233 237 239 242 243 245 245 246 249 253 256 258 255 250
188 176 205 193 204 231 223 242 227 217 216 216 208 222 215 208 210 190 206 205 210 223 231 228 229 229 230 231 233 234 236 240 244 245 247 247 247 250 253 252 254 255 253 253
250 217 227 186 201 203 192 203 205 203 207 219 226 211 175 209 224 219 233 237 233 233 232 232 235 234 235 236 237 237 240 242 245 248 249 250 252 253 255 255 255 256 254 255
219 241 225 228 220 209 213 201 185 200 213 233 239 256 246 244 236 239 250 250 241 239 237 238 238 239 241 241 242 241 242 245 247 249 251 254 254 255 256 257 257 257 257 256
226 272 272 199 202 198 229 227 231 248 252 253 243 248 261 245 243 240 239 241 245 246 242 243 243 244 244 244 244 244 245 246 247 250 252 254 255 255 257 258 259 257 258 259
275 233 219 221 208 225 214 215 220 238 248 253 255 252 260 270 253 252 256 253 250 249 247 246 246 246 246 246 246 246 247 249 250 252 253 254 254 255 256 257 259 260 260 261